EN

Hourly Weather Godzinowice

Today, 18 May, Tuesday

Time Temperature Precipitation Wind Pressure Humidity
00:00 +9°C° 0.1 mm 3 mps 742 mmHg 92%
01:00 +8°C° 0 mm 4 mps 742 mmHg 93%
02:00 +8°C° 0 mm 4 mps 742 mmHg 93%
03:00 +8°C° 0 mm 4 mps 742 mmHg 93%
04:00 +8°C° 0 mm 4 mps 742 mmHg 93%
05:00 +8°C° 0 mm 5 mps 742 mmHg 91%
06:00 +9°C° 0 mm 5 mps 743 mmHg 90%
07:00 +10°C° 0 mm 6 mps 743 mmHg 88%
08:00 +10°C° 0.1 mm 6 mps 744 mmHg 87%
09:00 +11°C° 0.1 mm 6 mps 744 mmHg 85%
10:00 +11°C° 0.1 mm 7 mps 744 mmHg 83%
11:00 +11°C° 0.2 mm 7 mps 744 mmHg 82%
12:00 +12°C° 0.2 mm 7 mps 744 mmHg 80%
13:00 +12°C° 0.2 mm 7 mps 745 mmHg 79%
14:00 +12°C° 0.1 mm 7 mps 745 mmHg 77%
15:00 +14°C° 0.1 mm 7 mps 745 mmHg 76%
16:00 +14°C° 0.1 mm 6 mps 745 mmHg 75%
17:00 +13°C° 0 mm 5 mps 745 mmHg 78%
18:00 +12°C° 0 mm 4 mps 745 mmHg 81%
19:00 +11°C° 0 mm 3 mps 745 mmHg 84%
20:00 +10°C° 0 mm 3 mps 745 mmHg 86%
21:00 +9°C° 0 mm 3 mps 746 mmHg 89%
22:00 +8°C° 0 mm 3 mps 746 mmHg 91%
23:00 +8°C° 0 mm 3 mps 746 mmHg 92%

Tomorrow, 19 May, Wednesday

Time Temperature Precipitation Wind Pressure Humidity
00:00 +7°C° 0 mm 3 mps 746 mmHg 93%
01:00 +7°C° 0 mm 3 mps 746 mmHg 94%
02:00 +7°C° 0 mm 3 mps 746 mmHg 94%
03:00 +5°C° 0 mm 3 mps 746 mmHg 95%
04:00 +5°C° 0 mm 3 mps 746 mmHg 95%
05:00 +7°C° 0 mm 3 mps 747 mmHg 92%
06:00 +8°C° 0 mm 4 mps 747 mmHg 88%
07:00 +10°C° 0 mm 4 mps 747 mmHg 84%
08:00 +10°C° 0 mm 4 mps 747 mmHg 82%
09:00 +11°C° 0 mm 4 mps 747 mmHg 79%
10:00 +12°C° 0 mm 4 mps 747 mmHg 77%
11:00 +12°C° 0.2 mm 4 mps 747 mmHg 73%
12:00 +13°C° 0.2 mm 4 mps 747 mmHg 69%
13:00 +14°C° 0.2 mm 4 mps 747 mmHg 66%
14:00 +14°C° 0.4 mm 4 mps 747 mmHg 68%
15:00 +14°C° 0.4 mm 5 mps 747 mmHg 71%
16:00 +13°C° 0.4 mm 5 mps 747 mmHg 73%
17:00 +12°C° 0.2 mm 4 mps 747 mmHg 78%
18:00 +11°C° 0.2 mm 4 mps 747 mmHg 83%
19:00 +10°C° 0.2 mm 3 mps 747 mmHg 88%
20:00 +10°C° 0 mm 3 mps 747 mmHg 90%
21:00 +9°C° 0 mm 3 mps 748 mmHg 91%
22:00 +8°C° 0 mm 3 mps 748 mmHg 93%
23:00 +8°C° 0 mm 3 mps 748 mmHg 93%

Day after tomorrow, 20 May, Thursday

Time Temperature Precipitation Wind Pressure Humidity
00:00 +7°C° 0 mm 3 mps 748 mmHg 94%
01:00 +7°C° 0 mm 3 mps 748 mmHg 94%
02:00 +7°C° 0 mm 3 mps 748 mmHg 94%
03:00 +6°C° 0 mm 2 mps 749 mmHg 94%
04:00 +6°C° 0 mm 2 mps 749 mmHg 94%
05:00 +7°C° 0 mm 3 mps 749 mmHg 91%
06:00 +9°C° 0 mm 3 mps 749 mmHg 88%
07:00 +10°C° 0 mm 3 mps 750 mmHg 85%
08:00 +11°C° 0.1 mm 4 mps 750 mmHg 80%
09:00 +13°C° 0.1 mm 4 mps 750 mmHg 74%
10:00 +14°C° 0.1 mm 4 mps 750 mmHg 69%
11:00 +14°C° 0.4 mm 5 mps 750 mmHg 69%
12:00 +15°C° 0.4 mm 5 mps 750 mmHg 68%
13:00 +15°C° 0.4 mm 5 mps 750 mmHg 67%
14:00 +15°C° 0.5 mm 5 mps 750 mmHg 71%
15:00 +14°C° 0.5 mm 5 mps 750 mmHg 74%
16:00 +14°C° 0.5 mm 6 mps 750 mmHg 77%
17:00 +13°C° 0.3 mm 5 mps 751 mmHg 81%
18:00 +12°C° 0.3 mm 4 mps 751 mmHg 85%
19:00 +11°C° 0.3 mm 3 mps 751 mmHg 89%
20:00 +10°C° 0 mm 3 mps 751 mmHg 90%
21:00 +9°C° 0 mm 3 mps 752 mmHg 90%
22:00 +8°C° 0 mm 2 mps 752 mmHg 91%
23:00 +7°C° 0 mm 2 mps 752 mmHg 91%

21 May, Friday

Time Temperature Precipitation Wind Pressure Humidity
00:00 +7°C° 0 mm 2 mps 752 mmHg 90%
01:00 +6°C° 0 mm 2 mps 752 mmHg 90%
02:00 +6°C° 0 mm 2 mps 752 mmHg 89%
03:00 +6°C° 0 mm 2 mps 752 mmHg 88%
04:00 +5°C° 0 mm 2 mps 751 mmHg 87%
05:00 +7°C° 0 mm 2 mps 751 mmHg 83%
06:00 +9°C° 0 mm 2 mps 751 mmHg 80%
07:00 +11°C° 0 mm 3 mps 751 mmHg 76%
08:00 +12°C° 0 mm 3 mps 751 mmHg 70%
09:00 +14°C° 0 mm 4 mps 750 mmHg 64%
10:00 +15°C° 0 mm 4 mps 750 mmHg 57%
11:00 +17°C° 0 mm 4 mps 749 mmHg 55%
12:00 +18°C° 0 mm 4 mps 749 mmHg 52%
13:00 +19°C° 0 mm 4 mps 748 mmHg 50%
14:00 +19°C° 0 mm 4 mps 748 mmHg 52%
15:00 +19°C° 0 mm 4 mps 747 mmHg 55%
16:00 +19°C° 0 mm 4 mps 747 mmHg 57%
17:00 +18°C° 0 mm 4 mps 746 mmHg 61%
18:00 +17°C° 0 mm 4 mps 746 mmHg 65%
19:00 +14°C° 0 mm 4 mps 745 mmHg 69%
20:00 +14°C° 0 mm 4 mps 745 mmHg 70%
21:00 +13°C° 0 mm 3 mps 745 mmHg 70%
22:00 +12°C° 0 mm 3 mps 745 mmHg 71%
23:00 +12°C° 0 mm 3 mps 744 mmHg 72%

22 May, Saturday

Time Temperature Precipitation Wind Pressure Humidity
00:00 +12°C° 0 mm 3 mps 744 mmHg 74%
01:00 +11°C° 0 mm 3 mps 743 mmHg 76%
02:00 +11°C° 0 mm 3 mps 742 mmHg 76%
03:00 +11°C° 0 mm 3 mps 742 mmHg 76%
04:00 +11°C° 0 mm 4 mps 741 mmHg 77%
05:00 +12°C° 0 mm 3 mps 741 mmHg 75%
06:00 +13°C° 0 mm 3 mps 742 mmHg 74%
07:00 +14°C° 0 mm 3 mps 742 mmHg 72%
08:00 +16°C° 0 mm 3 mps 742 mmHg 70%
09:00 +15°C° 0 mm 4 mps 742 mmHg 69%
10:00 +17°C° 0 mm 4 mps 742 mmHg 67%
11:00 +17°C° 0.1 mm 4 mps 742 mmHg 67%
12:00 +17°C° 0.1 mm 3 mps 741 mmHg 68%
13:00 +17°C° 0.1 mm 3 mps 741 mmHg 68%
14:00 +16°C° 0.7 mm 3 mps 742 mmHg 76%
15:00 +13°C° 0.7 mm 3 mps 742 mmHg 83%
16:00 +12°C° 0.7 mm 3 mps 742 mmHg 91%
17:00 +12°C° 0.1 mm 4 mps 743 mmHg 89%
18:00 +11°C° 0.1 mm 4 mps 743 mmHg 86%
19:00 +11°C° 0.1 mm 4 mps 743 mmHg 84%
20:00 +11°C° 0 mm 4 mps 744 mmHg 83%
21:00 +10°C° 0 mm 4 mps 744 mmHg 81%
22:00 +10°C° 0 mm 4 mps 744 mmHg 80%
23:00 +8°C° 0 mm 4 mps 745 mmHg 80%

23 May, Sunday

Time Temperature Precipitation Wind Pressure Humidity
00:00 +8°C° 0 mm 5 mps 745 mmHg 81%
01:00 +8°C° 0 mm 5 mps 745 mmHg 82%
02:00 +8°C° 0 mm 5 mps 745 mmHg 82%
03:00 +8°C° 0 mm 5 mps 745 mmHg 81%
04:00 +7°C° 0 mm 5 mps 745 mmHg 81%
05:00 +8°C° 0 mm 5 mps 745 mmHg 79%
06:00 +9°C° 0 mm 5 mps 746 mmHg 77%
07:00 +12°C° 0 mm 5 mps 746 mmHg 74%
08:00 +13°C° 0.1 mm 5 mps 746 mmHg 71%
09:00 +13°C° 0.1 mm 5 mps 746 mmHg 67%
10:00 +14°C° 0.1 mm 6 mps 747 mmHg 64%
11:00 +15°C° 0.3 mm 5 mps 747 mmHg 64%
12:00 +15°C° 0.3 mm 5 mps 747 mmHg 64%
13:00 +15°C° 0.3 mm 5 mps 747 mmHg 64%
14:00 +15°C° 0.4 mm 5 mps 747 mmHg 66%
15:00 +15°C° 0.4 mm 6 mps 748 mmHg 68%
16:00 +15°C° 0.4 mm 6 mps 748 mmHg 70%
17:00 +13°C° 0.2 mm 5 mps 748 mmHg 72%
18:00 +12°C° 0.2 mm 4 mps 748 mmHg 74%
19:00 +11°C° 0.2 mm 3 mps 748 mmHg 76%
20:00 +10°C° 0 mm 3 mps 749 mmHg 78%
21:00 +9°C° 0 mm 3 mps 749 mmHg 80%
22:00 +8°C° 0 mm 3 mps 750 mmHg 82%
23:00 +8°C° 0 mm 3 mps 749 mmHg 81%
Show more